TimeCDT,TemperatureF,Dew PointF,Humidity,Sea Level PressureIn,VisibilityMPH,Wind Direction,Wind SpeedMPH,Gust SpeedMPH,PrecipitationIn,Events,Conditions,WindDirDegrees,DateUTC
12:12 AM,39.2,37.4,93,29.56,10.0,WSW,9.2,17.3,N/A,,Overcast,250,2012-10-09 05:12:00
12:33 AM,39.2,37.4,93,29.56,10.0,West,8.1,-,N/A,,Overcast,260,2012-10-09 05:33:00
12:53 AM,39.2,37.4,93,29.56,10.0,West,8.1,-,N/A,,Overcast,260,2012-10-09 05:53:00
1:12 AM,39.2,37.4,93,29.57,10.0,West,6.9,-,N/A,,Overcast,260,2012-10-09 06:12:00
1:33 AM,39.2,37.4,93,29.57,10.0,WSW,6.9,-,N/A,,Overcast,250,2012-10-09 06:33:00
1:53 AM,39.2,37.4,93,29.57,7.0,WSW,5.8,-,N/A,,Drizzle,240,2012-10-09 06:53:00
2:12 AM,39.2,37.4,93,29.57,7.0,WSW,6.9,-,N/A,,Overcast,240,2012-10-09 07:12:00
2:33 AM,39.2,37.4,93,29.57,4.0,WSW,5.8,-,N/A,,Drizzle,240,2012-10-09 07:33:00
3:12 AM,39.2,37.4,93,29.56,7.0,SSW,3.5,-,N/A,,Overcast,200,2012-10-09 08:12:00
3:33 AM,39.2,39.2,100,29.56,10.0,SW,6.9,-,N/A,,Overcast,230,2012-10-09 08:33:00
3:53 AM,39.2,39.2,100,29.56,10.0,SW,9.2,-,N/A,,Overcast,230,2012-10-09 08:53:00
4:12 AM,41.0,39.2,93,29.57,10.0,SW,5.8,-,N/A,,Overcast,230,2012-10-09 09:12:00
4:33 AM,39.2,37.4,93,29.57,10.0,WSW,8.1,-,N/A,,Overcast,240,2012-10-09 09:33:00
4:52 AM,39.2,37.4,93,29.57,10.0,WSW,5.8,-,N/A,,Mostly Cloudy,240,2012-10-09 09:52:00
5:13 AM,41.0,37.4,87,29.57,10.0,WSW,8.1,-,N/A,,Mostly Cloudy,240,2012-10-09 10:13:00
5:33 AM,39.2,37.4,93,29.57,10.0,WSW,9.2,-,N/A,,Overcast,240,2012-10-09 10:33:00
5:52 AM,39.2,37.4,93,29.58,10.0,WSW,9.2,-,N/A,,Overcast,240,2012-10-09 10:52:00
6:13 AM,39.2,37.4,93,29.57,10.0,SW,6.9,-,N/A,,Overcast,230,2012-10-09 11:13:00
6:33 AM,39.2,37.4,93,29.58,10.0,SW,8.1,-,N/A,,Drizzle,230,2012-10-09 11:33:00
6:53 AM,39.2,37.4,93,29.58,7.0,WSW,6.9,-,N/A,Rain,Rain,250,2012-10-09 11:53:00
7:13 AM,39.2,37.4,93,29.58,10.0,SW,6.9,-,N/A,Rain,Light Rain,220,2012-10-09 12:13:00
7:33 AM,39.2,37.4,93,29.58,10.0,SW,6.9,-,N/A,,Overcast,220,2012-10-09 12:33:00
7:53 AM,39.2,37.4,93,29.59,10.0,SW,6.9,-,N/A,,Overcast,220,2012-10-09 12:53:00
8:13 AM,39.2,37.4,93,29.59,10.0,SW,8.1,-,N/A,,Overcast,220,2012-10-09 13:13:00
8:33 AM,39.2,37.4,93,29.59,10.0,SW,9.2,-,N/A,,Overcast,230,2012-10-09 13:33:00
8:53 AM,39.2,37.4,93,29.59,10.0,SW,8.1,-,N/A,,Overcast,220,2012-10-09 13:53:00
9:13 AM,39.2,35.6,87,29.59,10.0,WSW,8.1,18.4,N/A,,Mostly Cloudy,240,2012-10-09 14:13:00
9:33 AM,39.2,35.6,87,29.59,10.0,WSW,9.2,-,N/A,,Overcast,240,2012-10-09 14:33:00
9:53 AM,39.2,35.6,87,29.59,10.0,WSW,6.9,-,N/A,,Overcast,250,2012-10-09 14:53:00
10:13 AM,39.2,35.6,87,29.59,10.0,WSW,10.4,17.3,N/A,,Overcast,240,2012-10-09 15:13:00
10:33 AM,41.0,35.6,81,29.59,10.0,West,10.4,17.3,N/A,,Overcast,260,2012-10-09 15:33:00
10:53 AM,42.8,33.8,70,29.59,10.0,WSW,12.7,19.6,N/A,,Overcast,240,2012-10-09 15:53:00
11:13 AM,41.0,33.8,76,29.59,10.0,West,12.7,20.7,N/A,,Mostly Cloudy,260,2012-10-09 16:13:00
11:33 AM,44.6,33.8,66,29.59,10.0,West,18.4,25.3,N/A,,Mostly Cloudy,260,2012-10-09 16:33:00
11:52 AM,41.0,32.0,70,29.60,10.0,West,13.8,23.0,N/A,,Overcast,270,2012-10-09 16:52:00
12:13 PM,42.8,30.2,61,29.60,10.0,West,18.4,23.0,N/A,,Overcast,270,2012-10-09 17:13:00
12:33 PM,39.2,30.2,70,29.60,10.0,West,13.8,21.9,N/A,,Overcast,270,2012-10-09 17:33:00
12:52 PM,41.0,32.0,70,29.60,10.0,WSW,10.4,21.9,N/A,,Overcast,250,2012-10-09 17:52:00
1:13 PM,42.8,32.0,66,29.60,10.0,WSW,11.5,-,N/A,,Overcast,240,2012-10-09 18:13:00
1:33 PM,42.8,30.2,61,29.60,10.0,West,12.7,17.3,N/A,,Overcast,260,2012-10-09 18:33:00
1:52 PM,41.0,30.2,65,29.60,10.0,West,10.4,-,N/A,,Overcast,270,2012-10-09 18:52:00
2:13 PM,37.4,35.6,93,29.61,10.0,West,11.5,18.4,N/A,,Overcast,260,2012-10-09 19:13:00
2:33 PM,39.2,35.6,87,29.61,7.0,WNW,10.4,20.7,N/A,Rain,Rain,300,2012-10-09 19:33:00
2:52 PM,39.2,35.6,87,29.62,10.0,WNW,11.5,17.3,N/A,,Overcast,290,2012-10-09 19:52:00
3:04 PM,41.0,35.6,81,29.62,10.0,WNW,11.5,21.9,N/A,,Light Drizzle,290,2012-10-09 20:04:00
7:01 PM,33.8,30.2,87,29.73,10.0,NW,5.8,-,N/A,,Overcast,310,2012-10-10 00:01:00
7:03 PM,33.8,30.2,87,29.73,10.0,NW,8.1,-,N/A,,Overcast,310,2012-10-10 00:03:00
7:13 PM,33.8,30.2,87,29.74,7.0,WNW,13.8,18.4,N/A,Snow,Light Snow,300,2012-10-10 00:13:00
7:32 PM,32.0,30.2,93,29.75,10.0,WNW,10.4,16.1,N/A,,Mostly Cloudy,300,2012-10-10 00:32:00
7:53 PM,32.0,28.4,87,29.76,10.0,NW,9.2,18.4,N/A,,Mostly Cloudy,310,2012-10-10 00:53:00
8:13 PM,32.0,28.4,87,29.77,10.0,NW,9.2,-,N/A,,Scattered Clouds,310,2012-10-10 01:13:00
8:33 PM,32.0,28.4,87,29.78,10.0,NW,8.1,16.1,N/A,,Scattered Clouds,310,2012-10-10 01:33:00
8:53 PM,32.0,28.4,87,29.78,10.0,NW,8.1,16.1,N/A,Snow,Light Snow,320,2012-10-10 01:53:00
9:12 PM,32.0,28.4,87,29.79,10.0,WNW,10.4,19.6,N/A,,Scattered Clouds,300,2012-10-10 02:12:00
9:33 PM,32.0,28.4,87,29.79,10.0,NW,8.1,-,N/A,,Overcast,310,2012-10-10 02:33:00
9:51 PM,30.2,28.4,93,29.80,10.0,NW,10.4,16.1,N/A,,Mostly Cloudy,310,2012-10-10 02:51:00
10:13 PM,30.2,28.4,93,29.80,10.0,WNW,11.5,17.3,N/A,,Mostly Cloudy,300,2012-10-10 03:13:00
10:33 PM,30.2,26.6,86,29.81,10.0,NW,10.4,18.4,N/A,,Mostly Cloudy,320,2012-10-10 03:33:00
10:53 PM,30.2,26.6,86,29.82,10.0,NW,8.1,18.4,N/A,,Overcast,310,2012-10-10 03:53:00
11:12 PM,30.2,26.6,86,29.82,10.0,WNW,4.6,-,N/A,,Mostly Cloudy,300,2012-10-10 04:12:00
11:33 PM,30.2,26.6,86,29.82,10.0,West,5.8,-,N/A,,Scattered Clouds,280,2012-10-10 04:33:00
11:53 PM,30.2,26.6,86,29.82,10.0,WNW,4.6,-,N/A,,Scattered Clouds,290,2012-10-10 04:53:00